EDT,Max TemperatureF,Mean TemperatureF,Min TemperatureF,Max Dew PointF,MeanDew PointF,Min DewpointF,Max Humidity, Mean Humidity, Min Humidity, Max Sea Level PressureIn, Mean Sea Level PressureIn, Min Sea Level PressureIn, Max VisibilityMiles, Mean VisibilityMiles, Min VisibilityMiles, Max Wind SpeedMPH, Mean Wind SpeedMPH, Max Gust SpeedMPH,PrecipitationIn, CloudCover, Events, WindDirDegrees
2013-8-1,75,70,64,66,64,57,94,82,63,29.91,29.88,29.83,10,10,2,18,12,22,0.00,5,Rain,261
2013-8-2,75,68,63,67,61,55,94,76,53,29.97,29.91,29.86,10,9,5,17,9,28,0.39,4,Rain-Thunderstorm,226
2013-8-3,75,72,68,67,63,57,94,79,55,30.00,29.96,29.91,10,9,2,16,10,21,0.02,4,Rain,295
2013-8-4,71,68,64,63,56,49,84,68,58,30.13,30.08,30.00,10,10,10,17,12,26,0.00,5,Rain-Thunderstorm,344
2013-8-5,73,65,57,56,53,48,81,63,51,30.13,30.08,29.99,10,10,10,8,5,,0.00,3,,67
2013-8-6,80,71,64,60,57,55,75,61,50,30.00,29.97,29.93,10,10,10,10,8,,0.00,5,,147
2013-8-7,82,74,68,70,65,59,94,77,66,30.00,29.91,29.86,10,8,0,23,9,29,0.49,4,Rain-Thunderstorm,159
2013-8-8,78,74,69,73,70,65,94,87,81,29.97,29.93,29.90,10,8,4,13,8,33,0.02,7,Rain,35
2013-8-9,75,70,68,66,63,53,94,81,55,30.00,29.95,29.91,10,10,5,10,6,,0.06,6,Rain,337
2013-8-10,75,70,66,64,59,55,84,68,61,30.12,30.08,30.01,10,10,10,14,6,26,0.00,5,,53
2013-8-11,79,71,64,64,58,55,73,63,52,30.13,30.09,30.04,10,10,10,12,5,20,0.00,3,,72
2013-8-12,77,72,66,66,63,59,81,72,64,30.05,29.98,29.81,10,9,2,9,5,,0.00,5,,175
2013-8-13,71,68,63,66,59,47,93,76,54,29.99,29.89,29.79,10,10,7,20,14,30,0.05,5,Rain,330
2013-8-14,71,65,59,54,51,47,75,64,53,30.16,30.09,30.00,10,9,2,18,14,25,0.00,4,,337
2013-8-15,73,65,57,53,51,49,78,63,48,30.19,30.15,30.12,10,10,7,10,5,,0.00,1,,229
2013-8-16,75,66,57,58,54,52,81,65,50,30.19,30.17,30.12,10,8,2,10,6,,0.00,1,,82
2013-8-17,78,70,62,67,58,54,84,67,46,30.25,30.21,30.18,10,10,10,12,5,22,0.00,1,,73
2013-8-18,77,68,60,67,60,55,90,74,60,30.22,30.17,30.12,10,10,8,8,4,,0.00,3,,46
2013-8-19,78,70,64,68,63,57,94,78,56,30.14,30.11,30.06,10,8,4,8,4,,0.00,2,,231
2013-8-20,84,74,66,67,61,57,76,63,44,30.17,30.13,30.08,10,9,2,8,6,,0.00,1,,147
2013-8-21,84,75,66,70,65,60,82,66,51,30.18,30.11,30.04,10,7,1,9,7,,0.00,0,,65
2013-8-22,81,74,69,72,68,64,94,80,70,30.06,30.02,29.98,10,7,1,13,8,,0.08,3,Rain,250
2013-8-23,78,74,68,72,64,53,93,73,53,30.18,30.09,30.01,10,10,8,13,8,,0.04,1,,39
2013-8-24,78,69,60,60,57,53,80,66,46,30.32,30.27,30.19,10,9,2,16,5,21,0.01,0,,45
2013-8-25,84,73,62,66,59,54,86,61,34,30.32,30.26,30.19,10,10,10,13,7,,0.00,0,,189
2013-8-26,89,80,73,68,62,57,67,55,43,30.18,30.09,29.98,10,9,4,18,12,24,0.00,2,,226
2013-8-27,82,76,71,74,72,69,100,87,74,30.03,29.96,29.88,10,6,1,15,9,18,0.08,6,Rain,256
2013-8-28,78,76,73,74,72,71,96,91,84,29.97,29.88,29.80,10,7,2,15,8,25,0.10,7,Rain,317
2013-8-29,79,75,71,72,71,68,96,89,79,30.06,30.01,29.96,10,6,3,10,6,,0.00,4,,33
2013-8-30,87,78,70,72,68,66,90,73,49,29.99,29.91,29.78,10,8,2,14,5,22,0.00,1,,211
2013-8-31,81,76,72,71,70,66,93,81,62,29.83,29.80,29.73,10,9,7,10,6,24,0.01,4,Rain,302